Terminal Aerodrome Forecast
Issued by NWS

Home | Current Version | Previous Version | Graphics & Text | Print | Product List | Glossary On
Versions: 1 2 3 4 5 6 7 8 9 10 11 12 13 14 15 16 17 18 19 20 21 22 23 24 25 26 27 28 29 30 31 32 33 34
000
FTUS45 KGGW 101100
TAFGDV
TAF
KGDV 101121Z 1012/1112 18010KT P6SM -SHRA SCT050 OVC090
      TEMPO 1012/1013 -TSRA BKN050CB
     FM101400 18009KT P6SM BKN090
     FM101800 28010KT P6SM SCT100
     FM102000 33012KT P6SM SCT110
      AMD LTD TO CLD VIS AND WIND=

USA.gov is the U.S. government's official web portal to all federal, state and local government web resources and services.